Regional Weather Roundup
Issued by NWS

Home | Current Version | Previous Version | Text Only | Print | Product List | Glossary On
Versions: 1 2 3 4 5 6 7 8 9 10 11 12 13 14 15 16 17 18 19 20 21 22 23 24 25 26 27 28 29 30 31 32 33 34 35 36 37 38 39 40 41 42 43 44 45 46 47 48 49 50
000
ASUS43 KMKX 132021
RWRWI

WISCONSIN REGIONAL WEATHER ROUNDUP
NATIONAL WEATHER SERVICE MILWAUKEE/SULLIVAN WI
300 PM CDT THU AUG 13 2020

NOTE: "FAIR" INDICATES FEW OR NO CLOUDS BELOW 12,000 FEET WITH NO
SIGNIFICANT WEATHER AND/OR OBSTRUCTIONS TO VISIBILITY.

WIZ001-002-006>008-014>016-023>028-132100-
NORTHWEST WISCONSIN

CITY           SKY/WX    TMP DP  RH WIND       PRES   REMARKS
SUPERIOR ARPT  CLOUDY    70  65  83 NE7       30.01F
ASHLAND        PTSUNNY   79  67  66 SE8       30.04F HX  81
HAYWARD        SUNNY     79  68  69 SE8       30.05F HX  81
SIREN          MOSUNNY   83  70  63 S9        30.01S HX  87
CUMBERLAND     PTSUNNY   81  68  65 SE10      30.03F HX  83
RICE LAKE      CLOUDY    79  71  75 E8        30.04F HX  82
CHETEK         PTSUNNY   83  72  70 SE8       30.04S HX  88
LADYSMITH      MOSUNNY   82  69  65 S8        30.08F HX  85
EAU CLAIRE     MOSUNNY   86  67  52 S14G20    30.02F HX  89
MENOMONIE      MOSUNNY   82  67  60 S13       30.02S HX  84
NEW RICHMOND   MOSUNNY   85  69  57 S9G18     30.00F HX  89
OSCEOLA        PTSUNNY   87  72  61 S15       30.01F HX  93
$$

WIZ003>005-009-010-017-018-132100-
NORTH CENTRAL WISCONSIN

CITY           SKY/WX    TMP DP  RH WIND       PRES   REMARKS
MANITOWISH WTR CLOUDY    73  61  65 SE7       30.12S
ARBOR VITAE    CLOUDY    74  64  70 SE8       30.13S
WOODRUFF       CLOUDY    74  64  70 SE8       30.13S
RHINELANDER    PTSUNNY   77  60  55 S12       30.14F
EAGLE RIVER    CLOUDY    74  58  56 S6        30.13F
LAND O LAKES   CLOUDY    75  59  57 S7        30.15F
PHILLIPS       CLOUDY    77  64  63 S12G17    30.09F
TOMAHAWK       MOSUNNY   77  62  60 SE5       30.12F
MEDFORD        PTSUNNY   76  65  67 S8        30.10F
MERRILL        MOSUNNY   77  64  62 S6        30.12F
$$

WIZ029-030-035-036-043>047-132100-
CENTRAL WISCONSIN

CITY           SKY/WX    TMP DP  RH WIND       PRES   REMARKS
WAUSAU         MOSUNNY   79  64  60 S12G18    30.09F HX  81
MOSINEE        MOSUNNY   79  63  57 SE10      30.12F HX  80
MARSHFIELD     SUNNY     83  64  52 SE12      30.09F HX  84
STEVENS POINT  MOSUNNY   81  62  51 SE9       30.10F HX  82
WAUPACA        MOSUNNY   86  56  35 SE8       30.10S HX  84
WAUTOMA        MOSUNNY   84  62  47 VRB5        N/A  HX  85
WISC RAPIDS    SUNNY     85  62  46 S10G16    30.09F HX  85
CAMP DOUGLAS   MOSUNNY   84  66  54 SE7       30.07F HX  86
$$

WIZ011>013-019>022-031-037>040-048>050-132100-
NORTHEAST WISCONSIN

CITY           SKY/WX    TMP DP  RH WIND       PRES   REMARKS
ANTIGO         PTSUNNY   78  62  57 S7        30.14F
SHAWANO        MOSUNNY   85  62  46 SE6       30.10F HX  85
OCONTO         MOSUNNY   80  60  50 E8        30.11S HX  81
STURGEON BAY   SUNNY     81  61  50 VRB6      30.13F HX  82
GREEN BAY      MOSUNNY   84  61  45 S7        30.11S HX  84
MANITOWOC      MOSUNNY   77  64  64 SE8       30.12F
APPLETON       PTSUNNY   82  54  36 SE12      30.10F HX  81
CLINTONVILLE   MOSUNNY   84  57  40 SE10      30.10F HX  83
OSHKOSH        MOSUNNY   83  60  45 E9        30.10F HX  83
$$

WIZ032>034-041-042-053>061-132100-
SOUTHWEST WISCONSIN

CITY           SKY/WX    TMP DP  RH WIND       PRES   REMARKS
LA CROSSE      MOSUNNY   88  68  51 S9        30.04F HX  91
SPARTA         PTSUNNY   83  65  54 E9        30.06F HX  85
VIROQUA        PTSUNNY   81  69  68 S7        30.08F HX  84
BOSCOBEL       MOSUNNY   86  65  49 E10       30.05F HX  88
PRAIRIE DU CHI MOSUNNY   84  60  44 E6        30.04F HX  84
PLATTEVILLE    MOSUNNY   82  70  67 SE7       30.07F HX  85
$$

WIZ056-057-062-063-064-067-068-132100-
SOUTH CENTRAL WISCONSIN

CITY           SKY/WX    TMP DP  RH WIND       PRES   REMARKS
REEDSBURG      MOSUNNY   85  64  50 SE5       30.08F HX  86
BARABOO/DELLS  MOSUNNY   82  59  45 SE7       30.09F HX  82
LONE ROCK      MOSUNNY   84  66  54 CALM      30.06F HX  86
MINERAL POINT  PTSUNNY   81  63  54 SE5       30.09S HX  82
MADISON        PTSUNNY   81  60  48 SE5       30.08F HX  82
MIDDLETON      SUNNY     85  59  41 E6        30.08F HX  84
WATERTOWN      SUNNY     84  60  44 E8        30.09S HX  84
MONROE         MOSUNNY   82  61  49 E6        30.07F HX  82
JANESVILLE     PTSUNNY   84  63  48 SE8       30.07F HX  85
$$

WIZ051-052-058>065-066-070>072-132100-
SOUTHEAST WISCONSIN

CITY           SKY/WX    TMP DP  RH WIND       PRES   REMARKS
MILWAUKEE      PTSUNNY   80  64  58 SE9       30.09F HX  82
WAUKESHA       SUNNY     82  52  34 E10       30.11S HX  81
MILWAUKEE/TIMM SUNNY     82  46  28 SE8       30.10F HX  81
RACINE         MOSUNNY   79  62  56 E10       30.10F HX  80
KENOSHA        MOSUNNY   82  58  43 SE10      30.09F HX  82
FOND DU LAC    MOSUNNY   84  60  44 S5        30.10F HX  84
SHEBOYGAN      SUNNY     84  61  45 CALM      30.11F HX  84
WEST BEND      SUNNY     82  52  34 S7        30.10F HX  81
JUNEAU         MOSUNNY   82  62  51 SE3       30.11F HX  83
$$

LSZ147-162-132100-
LAKE SUPERIOR

STATION/POSITION TIME  TEMP    WIND        PRES    WAVE
                       AIR SEA DIR/SP/G            HT/PER
                 (UTC) (F)     (DEG/KT/KT) (MB)    (FT/S)
W MID LAKE BUOY  2000   67      80/  8/ 10 1018.3
DEVILS ISLAND    2000   69      90/ 11/ 12 1017.4F
PORT WING        1940   74      40/  8/ 10 1016.6F
SAXON HARBOR     1940   80     200/  4/  7 1017.3S
$$

LMZ867-665-643>646-132100-
LAKE MICHIGAN

STATION/POSITION TIME  TEMP    WIND        PRES    WAVE
                       AIR SEA DIR/SP/G            HT/PER
                 (UTC) (F)     (DEG/KT/KT) (MB)    (FT/S)
CHAMBERS ISLAND  1940   76     360/  4/  4   N/A
S GREEN BAY BUOY 1800   75      30/  6/  8 1019.2
N MID LAKE BUOY  2010   71 69   10/  6/  8 1020.0
NORTHPORT PIER   1940   76     100/  2/  3 1019.6F
KEWAUNEE LAKESHO 1948   76      40/  2/  5 1019.8F
SHEBOYGAN LAKESH 2000   72     100/  4/  4   N/A
PORT WASHINGTON  1930   78      40/  4/  5 1020.7R
ATWATER BUOY     2000   74 74   60/  4/  6 1019.5    1
MILWAUKEE LAKESH 2000   74      90/  5/  5   N/A
S MID LAKE BUOY  2010   76 74  140/  4/  4 1018.4
KENOSHA   LAKESH 2000   80     110/  4/  6 1018.3
$$

TC  - TEMPERATURE IN CELSIUS
VSB - VISIBILITY IN STATUTE MILES
WCI - WIND CHILL INDEX
HX  - HEAT INDEX





USA.gov is the U.S. government's official web portal to all federal, state and local government web resources and services.